| time (UTC) | temp F | wind direction | speed knots | gust knots | rain 1hr in | rain 24hr in | rain mn in | humidity % | barometer mb |
| 20260505051614 | 57 | 0 | 0.0 | 0.0 | 0.00 | 0.00 | 0.00 | 72 | 1010.0 |
| 20260505051059 | 57 | 0 | 0.0 | 0.0 | 0.00 | 0.00 | 0.00 | 71 | 1010.0 |
| 20260505050559 | 57 | 0 | 0.0 | 0.0 | 0.00 | 0.00 | 0.00 | 70 | 1010.0 |
| 20260505041600 | 59 | 0 | 0.0 | 0.0 | 0.00 | 0.00 | 0.00 | 66 | 1010.1 |
| 20260505041059 | 59 | 0 | 0.0 | 0.0 | 0.00 | 0.00 | 0.00 | 64 | 1010.1 |
| 20260505040558 | 59 | 0 | 0.0 | 0.0 | 0.00 | 0.00 | 0.00 | 64 | 1010.1 |
| 20260505040104 | 59 | 0 | 0.0 | 1.7 | 0.00 | 0.00 | 0.00 | 63 | 1010.2 |
| 20260505035557 | 59 | 0 | 0.0 | 1.7 | 0.00 | 0.00 | 0.00 | 63 | 1010.2 |
| 20260505035059 | 59 | 25 | 0.0 | 0.0 | 0.00 | 0.00 | 0.00 | 63 | 1010.2 |
| 20260505034558 | 60 | 0 | 0.0 | 0.0 | 0.00 | 0.00 | 0.00 | 62 | 1010.2 |
| 20260505034057 | 60 | 0 | 0.0 | 0.0 | 0.00 | 0.00 | 0.00 | 61 | 1010.3 |
| 20260505033559 | 60 | 0 | 0.0 | 0.0 | 0.00 | 0.00 | 0.00 | 60 | 1010.2 |
| 20260505033059 | 61 | 0 | 0.0 | 0.0 | 0.00 | 0.00 | 0.00 | 60 | 1010.2 |
| 20260505032600 | 61 | 0 | 0.0 | 0.0 | 0.00 | 0.00 | 0.00 | 60 | 1010.2 |
| 20260505032059 | 61 | 0 | 0.0 | 0.0 | 0.00 | 0.00 | 0.00 | 58 | 1010.1 |
| 20260505031600 | 61 | 0 | 0.0 | 0.0 | 0.00 | 0.00 | 0.00 | 58 | 1010.1 |
| 20260505031059 | 62 | 0 | 0.0 | 0.0 | 0.00 | 0.00 | 0.00 | 59 | 1010.1 |
| 20260505030601 | 62 | 0 | 0.0 | 0.9 | 0.00 | 0.00 | 0.00 | 58 | 1010.1 |
| 20260505030103 | 62 | 0 | 0.0 | 0.9 | 0.00 | 0.00 | 0.00 | 59 | 1010.1 |
| 20260505025600 | 62 | 0 | 0.0 | 1.7 | 0.00 | 0.00 | 0.00 | 58 | 1010.1 |
| 20260505025059 | 63 | 0 | 0.0 | 1.7 | 0.00 | 0.00 | 0.00 | 58 | 1010.0 |
| 20260505024558 | 63 | 25 | 0.0 | 0.0 | 0.00 | 0.00 | 0.00 | 56 | 1010.0 |
| 20260505024059 | 64 | 0 | 0.0 | 0.9 | 0.00 | 0.00 | 0.00 | 54 | 1010.1 |
| 20260505023600 | 64 | 0 | 0.0 | 0.9 | 0.00 | 0.00 | 0.00 | 55 | 1010.0 |
| 20260505023058 | 64 | 0 | 0.0 | 0.9 | 0.00 | 0.00 | 0.00 | 55 | 1009.9 |
| 20260505022559 | 64 | 0 | 0.0 | 0.9 | 0.00 | 0.00 | 0.00 | 53 | 1010.1 |
| 20260505022059 | 64 | 0 | 0.0 | 0.9 | 0.00 | 0.00 | 0.00 | 56 | 1010.0 |
| 20260505021602 | 65 | 0 | 0.0 | 0.9 | 0.00 | 0.00 | 0.00 | 52 | 1010.0 |
| 20260505021100 | 65 | 0 | 0.0 | 0.9 | 0.00 | 0.00 | 0.00 | 54 | 1009.9 |
| 20260505020600 | 65 | 0 | 0.0 | 0.9 | 0.00 | 0.00 | 0.00 | 52 | 1010.0 |
| 20260505020106 | 65 | 0 | 0.0 | 1.7 | 0.00 | 0.00 | 0.00 | 52 | 1010.0 |
| 20260505015602 | 65 | 0 | 0.0 | 1.7 | 0.00 | 0.00 | 0.00 | 52 | 1009.9 |
| 20260505015103 | 65 | 0 | 0.0 | 1.7 | 0.00 | 0.00 | 0.00 | 52 | 1009.8 |
| 20260505014559 | 65 | 0 | 0.0 | 1.7 | 0.00 | 0.00 | 0.00 | 55 | 1009.7 |
| 20260505014100 | 65 | 0 | 0.0 | 1.7 | 0.00 | 0.00 | 0.00 | 53 | 1009.7 |
| 20260505013558 | 65 | 0 | 0.0 | 0.0 | 0.00 | 0.00 | 0.00 | 51 | 1009.7 |
| 20260505013106 | 66 | 0 | 0.0 | 0.0 | 0.00 | 0.00 | 0.00 | 50 | 1009.6 |
| 20260505012559 | 66 | 0 | 0.0 | 0.0 | 0.00 | 0.00 | 0.00 | 50 | 1009.5 |
| 20260505012059 | 66 | 0 | 0.0 | 0.0 | 0.00 | 0.00 | 0.00 | 50 | 1009.4 |
| 20260505011601 | 67 | 0 | 0.0 | 0.0 | 0.00 | 0.00 | 0.00 | 51 | 1009.4 |
| 20260505011100 | 67 | 0 | 0.0 | 0.0 | 0.00 | 0.00 | 0.00 | 50 | 1009.4 |
| 20260505010557 | 67 | 0 | 0.0 | 0.0 | 0.00 | 0.00 | 0.00 | 47 | 1009.4 |
| 20260505010111 | 68 | 0 | 0.0 | 0.0 | 0.00 | 0.00 | 0.00 | 47 | 1009.3 |
| 20260505005557 | 68 | 0 | 0.0 | 1.7 | 0.00 | 0.00 | 0.00 | 46 | 1009.3 |
| 20260505005059 | 68 | 0 | 0.0 | 1.7 | 0.00 | 0.00 | 0.00 | 48 | 1009.3 |
| 20260505004559 | 69 | 0 | 0.0 | 0.0 | 0.00 | 0.00 | 0.00 | 44 | 1009.3 |
| 20260505004059 | 69 | 0 | 0.0 | 1.7 | 0.00 | 0.00 | 0.00 | 44 | 1009.2 |
| 20260505003559 | 69 | 0 | 0.0 | 1.7 | 0.00 | 0.00 | 0.00 | 45 | 1009.2 |
| 20260505003100 | 70 | 17 | 0.0 | 1.7 | 0.00 | 0.00 | 0.00 | 42 | 1009.2 |
| 20260505002559 | 70 | 0 | 0.0 | 1.7 | 0.00 | 0.00 | 0.00 | 44 | 1009.1 |
| 20260505002100 | 71 | 16 | 0.0 | 2.6 | 0.00 | 0.00 | 0.00 | 43 | 1009.1 |
| 20260505001604 | 71 | 0 | 0.0 | 2.6 | 0.00 | 0.00 | 0.00 | 42 | 1009.0 |
| 20260505001059 | 71 | 326 | 0.0 | 2.6 | 0.00 | 0.00 | 0.00 | 42 | 1009.0 |
| 20260505000559 | 72 | 0 | 0.0 | 2.6 | 0.00 | 0.00 | 0.00 | 41 | 1009.2 |
| 20260504235559 | 72 | 310 | 0.0 | 3.5 | 0.00 | 0.00 | 0.00 | 40 | 1009.1 |
| 20260504235058 | 72 | 308 | 0.0 | 4.3 | 0.00 | 0.00 | 0.00 | 40 | 1008.9 |
| 20260504234559 | 72 | 311 | 0.0 | 4.3 | 0.00 | 0.00 | 0.00 | 39 | 1008.9 |
| 20260504234057 | 72 | 321 | 0.0 | 3.5 | 0.00 | 0.00 | 0.00 | 40 | 1009.0 |
| 20260504233559 | 72 | 0 | 0.0 | 5.2 | 0.00 | 0.00 | 0.00 | 39 | 1009.0 |
| 20260504233108 | 73 | 125 | 0.9 | 5.2 | 0.00 | 0.00 | 0.00 | 39 | 1008.9 |
| 20260504232557 | 73 | 63 | 0.9 | 4.3 | 0.00 | 0.00 | 0.00 | 39 | 1009.0 |
| 20260504232101 | 73 | 0 | 0.9 | 4.3 | 0.00 | 0.00 | 0.00 | 38 | 1008.9 |
| 20260504231604 | 73 | 316 | 0.0 | 3.5 | 0.00 | 0.00 | 0.00 | 38 | 1008.8 |
| 20260504231059 | 73 | 356 | 0.9 | 3.5 | 0.00 | 0.00 | 0.00 | 39 | 1008.9 |
| 20260504230600 | 73 | 148 | 0.9 | 5.2 | 0.00 | 0.00 | 0.00 | 40 | 1008.9 |
| 20260504230100 | 74 | 139 | 1.7 | 5.2 | 0.00 | 0.00 | 0.00 | 39 | 1008.8 |
| 20260504225600 | 74 | 323 | 0.9 | 8.7 | 0.00 | 0.00 | 0.00 | 37 | 1008.9 |
| 20260504225101 | 74 | 0 | 0.9 | 8.7 | 0.00 | 0.00 | 0.00 | 36 | 1008.8 |
| 20260504224601 | 74 | 117 | 1.7 | 7.8 | 0.00 | 0.00 | 0.00 | 36 | 1008.8 |
| 20260504224059 | 75 | 0 | 0.9 | 7.8 | 0.00 | 0.00 | 0.00 | 35 | 1008.6 |
| 20260504223559 | 75 | 158 | 2.6 | 7.8 | 0.00 | 0.00 | 0.00 | 35 | 1008.7 |
| 20260504223058 | 76 | 301 | 2.6 | 7.8 | 0.00 | 0.00 | 0.00 | 33 | 1008.8 |
| 20260504222559 | 76 | 212 | 2.6 | 8.7 | 0.00 | 0.00 | 0.00 | 34 | 1008.8 |
| 20260504222059 | 76 | 140 | 2.6 | 9.6 | 0.00 | 0.00 | 0.00 | 34 | 1008.9 |
| 20260504221600 | 76 | 308 | 2.6 | 9.6 | 0.00 | 0.00 | 0.00 | 34 | 1008.7 |
| 20260504221057 | 76 | 336 | 1.7 | 6.1 | 0.00 | 0.00 | 0.00 | 34 | 1008.8 |
| 20260504220600 | 77 | 150 | 0.0 | 6.1 | 0.00 | 0.00 | 0.00 | 36 | 1008.6 |
| 20260504220058 | 76 | 239 | 1.7 | 11.3 | 0.00 | 0.00 | 0.00 | 36 | 1008.7 |
| 20260504215559 | 77 | 125 | 2.6 | 11.3 | 0.00 | 0.00 | 0.00 | 33 | 1008.9 |
| 20260504215100 | 77 | 152 | 3.5 | 8.7 | 0.00 | 0.00 | 0.00 | 34 | 1008.8 |
| 20260504214558 | 77 | 156 | 1.7 | 8.7 | 0.00 | 0.00 | 0.00 | 35 | 1008.7 |
| 20260504214059 | 77 | 143 | 2.6 | 9.6 | 0.00 | 0.00 | 0.00 | 34 | 1008.8 |
| 20260504213559 | 77 | 137 | 2.6 | 9.6 | 0.00 | 0.00 | 0.00 | 34 | 1008.8 |
| 20260504213057 | 76 | 316 | 1.7 | 7.0 | 0.00 | 0.00 | 0.00 | 36 | 1008.9 |
| 20260504212600 | 75 | 134 | 1.7 | 7.0 | 0.00 | 0.00 | 0.00 | 37 | 1009.0 |
| 20260504212100 | 74 | 0 | 1.7 | 7.8 | 0.00 | 0.00 | 0.00 | 36 | 1008.9 |
| 20260504211556 | 73 | 69 | 1.7 | 7.8 | 0.00 | 0.00 | 0.00 | 36 | 1008.8 |
| 20260504211101 | 74 | 154 | 1.7 | 10.4 | 0.00 | 0.00 | 0.00 | 36 | 1008.9 |
| 20260504210559 | 75 | 123 | 3.5 | 10.4 | 0.00 | 0.00 | 0.00 | 34 | 1008.9 |
| 20260504210107 | 76 | 339 | 2.6 | 8.7 | 0.00 | 0.00 | 0.00 | 35 | 1008.8 |
| 20260504205557 | 77 | 298 | 2.6 | 7.0 | 0.00 | 0.00 | 0.00 | 32 | 1008.7 |
| 20260504205058 | 78 | 144 | 2.6 | 7.0 | 0.00 | 0.00 | 0.00 | 31 | 1008.8 |
| 20260504204607 | 79 | 124 | 2.6 | 7.0 | 0.00 | 0.00 | 0.00 | 30 | 1008.9 |
| 20260504204059 | 78 | 216 | 1.7 | 4.3 | 0.00 | 0.00 | 0.00 | 34 | 1008.8 |
| 20260504203559 | 79 | 152 | 0.9 | 4.3 | 0.00 | 0.00 | 0.00 | 34 | 1008.7 |
| 20260504203108 | 78 | 0 | 1.7 | 4.3 | 0.00 | 0.00 | 0.00 | 34 | 1008.8 |
| 20260504202600 | 78 | 308 | 1.7 | 4.3 | 0.00 | 0.00 | 0.00 | 31 | 1008.9 |
| 20260504202100 | 79 | 152 | 2.6 | 7.0 | 0.00 | 0.00 | 0.00 | 32 | 1008.8 |
| 20260504201600 | 78 | 307 | 0.9 | 7.0 | 0.00 | 0.00 | 0.00 | 33 | 1008.9 |
| 20260504201102 | 78 | 337 | 2.6 | 7.8 | 0.00 | 0.00 | 0.00 | 30 | 1009.0 |
| 20260504200559 | 78 | 325 | 2.6 | 7.8 | 0.00 | 0.00 | 0.00 | 32 | 1009.1 |
| 20260504200100 | 78 | 333 | 1.7 | 12.2 | 0.00 | 0.00 | 0.00 | 30 | 1009.1 |
| 20260504195612 | 78 | 330 | 1.7 | 12.2 | 0.00 | 0.00 | 0.00 | 30 | 1009.2 |
| 20260504195059 | 78 | 23 | 2.6 | 12.2 | 0.00 | 0.00 | 0.00 | 30 | 1009.4 |
| 20260504194613 | 77 | 358 | 2.6 | 7.0 | 0.00 | 0.00 | 0.00 | 31 | 1009.4 |
| 20260504194101 | 77 | 346 | 3.5 | 8.7 | 0.00 | 0.00 | 0.00 | 31 | 1009.4 |
| 20260504193559 | 78 | 137 | 2.6 | 8.7 | 0.00 | 0.00 | 0.00 | 32 | 1009.4 |
| 20260504193102 | 78 | 127 | 0.9 | 4.3 | 0.00 | 0.00 | 0.00 | 32 | 1009.6 |
| 20260504192600 | 77 | 0 | 0.9 | 11.3 | 0.00 | 0.00 | 0.00 | 32 | 1009.7 |
| 20260504192100 | 77 | 21 | 3.5 | 11.3 | 0.00 | 0.00 | 0.00 | 34 | 1009.9 |
| 20260504191600 | 77 | 244 | 2.6 | 6.1 | 0.00 | 0.00 | 0.00 | 33 | 1010.0 |
| 20260504191101 | 77 | 144 | 1.7 | 5.2 | 0.00 | 0.00 | 0.00 | 32 | 1009.9 |
| 20260504190602 | 77 | 285 | 2.6 | 7.0 | 0.00 | 0.00 | 0.00 | 35 | 1010.0 |
| 20260504190129 | 77 | 325 | 1.7 | 7.0 | 0.00 | 0.00 | 0.00 | 35 | 1010.0 |
| 20260504185559 | 77 | 160 | 2.6 | 5.2 | 0.00 | 0.00 | 0.00 | 31 | 1010.2 |
| 20260504185059 | 77 | 0 | 1.7 | 4.3 | 0.00 | 0.00 | 0.00 | 34 | 1010.2 |
| 20260504184559 | 76 | 0 | 0.9 | 4.3 | 0.00 | 0.00 | 0.00 | 32 | 1010.2 |
| 20260504184101 | 76 | 339 | 1.7 | 7.8 | 0.00 | 0.00 | 0.00 | 33 | 1010.4 |
| 20260504183559 | 76 | 319 | 1.7 | 7.8 | 0.00 | 0.00 | 0.00 | 32 | 1010.4 |
| 20260504183101 | 76 | 132 | 0.9 | 7.0 | 0.00 | 0.00 | 0.00 | 33 | 1010.5 |
| 20260504182558 | 75 | 117 | 1.7 | 7.0 | 0.00 | 0.00 | 0.00 | 34 | 1010.6 |
| 20260504182101 | 75 | 332 | 1.7 | 6.1 | 0.00 | 0.00 | 0.00 | 35 | 1010.6 |
| 20260504181559 | 75 | 156 | 1.7 | 7.0 | 0.00 | 0.00 | 0.00 | 38 | 1010.7 |
| 20260504181059 | 75 | 137 | 1.7 | 7.0 | 0.00 | 0.00 | 0.00 | 35 | 1010.9 |
| 20260504180602 | 75 | 328 | 1.7 | 7.0 | 0.00 | 0.00 | 0.00 | 34 | 1010.8 |
| 20260504180059 | 75 | 176 | 0.9 | 7.0 | 0.00 | 0.00 | 0.00 | 39 | 1011.0 |
| 20260504175601 | 74 | 331 | 1.7 | 7.8 | 0.00 | 0.00 | 0.00 | 38 | 1011.1 |
| 20260504175100 | 74 | 158 | 0.9 | 7.8 | 0.00 | 0.00 | 0.00 | 36 | 1011.2 |
| 20260504174608 | 74 | 249 | 1.7 | 5.2 | 0.00 | 0.00 | 0.00 | 36 | 1011.3 |
| 20260504174101 | 74 | 119 | 0.9 | 7.0 | 0.00 | 0.00 | 0.00 | 38 | 1011.4 |
| 20260504173600 | 73 | 133 | 1.7 | 7.0 | 0.00 | 0.00 | 0.00 | 37 | 1011.5 |
| 20260504173103 | 73 | 0 | 1.7 | 6.1 | 0.00 | 0.00 | 0.00 | 38 | 1011.4 |
| 20260504172602 | 73 | 152 | 1.7 | 6.1 | 0.00 | 0.00 | 0.00 | 39 | 1011.5 |
| 20260504172100 | 72 | 318 | 0.9 | 7.0 | 0.00 | 0.00 | 0.00 | 38 | 1011.6 |
| 20260504171601 | 72 | 352 | 2.6 | 7.0 | 0.00 | 0.00 | 0.00 | 36 | 1011.7 |
| 20260504171100 | 72 | 127 | 1.7 | 5.2 | 0.00 | 0.00 | 0.00 | 37 | 1011.7 |
| 20260504170603 | 72 | 153 | 1.7 | 5.2 | 0.00 | 0.00 | 0.00 | 37 | 1011.8 |
| 20260504160107 | 67 | 140 | 1.7 | 4.3 | 0.00 | 0.00 | 0.00 | 45 | 1012.7 |
| 20260504151100 | 64 | 138 | 0.9 | 4.3 | 0.00 | 0.00 | 0.00 | 48 | 1013.1 |
| 20260504150600 | 64 | 138 | 0.9 | 6.1 | 0.00 | 0.00 | 0.00 | 50 | 1013.2 |
| 20260504141058 | 61 | 115 | 0.0 | 2.6 | 0.00 | 0.00 | 0.00 | 48 | 1013.3 |
| 20260504140558 | 60 | 0 | 0.0 | 3.5 | 0.00 | 0.00 | 0.00 | 49 | 1013.3 |
| 20260504130559 | 54 | 0 | 0.0 | 3.5 | 0.00 | 0.00 | 0.00 | 57 | 1013.9 |
| 20260504110602 | 46 | 0 | 0.0 | 1.7 | 0.00 | 0.00 | 0.00 | 80 | 1014.4 |
| 20260504100559 | 47 | 0 | 0.0 | 0.9 | 0.00 | 0.00 | 0.00 | 74 | 1014.2 |
| 20260504081607 | 46 | 0 | 0.0 | 0.0 | 0.00 | 0.00 | 0.00 | 82 | 1014.6 |
| 20260504081100 | 46 | 0 | 0.0 | 0.0 | 0.00 | 0.00 | 0.00 | 82 | 1014.5 |
| 20260504080600 | 45 | 0 | 0.0 | 0.0 | 0.00 | 0.00 | 0.00 | 82 | 1014.5 |
| 20260504060126 | 44 | 0 | 0.0 | 0.9 | 0.00 | 0.00 | 0.00 | 83 | 1015.0 |